QPF
0.07 0.14 0.13 0.06 0.11 0.11 0.08 0.03 0.00 0.00 0.00 0.00 0.00 0.00 0.00 0.00 0.00 0.00 0.02 0.17 0.07 0.02 0.00 0.00 0.01 0.11 0.28 0.18 0.22 0.05 0.01 0.01 0.07 0.00 0.00 0.00 0.00 0.00 0.00 0.00 0.00 0.00 0.00
0.16 0.12 0.12 0.08 0.05 0.02 0.02 0.02 0.00 0.00 0.00 0.00 0.00 0.00 0.00 0.01 0.00 0.00 0.02 0.19 0.12 0.12 0.05 0.00 0.02 0.10 0.09 0.10 0.06 0.02 0.01 0.02 0.05 0.01 0.00 0.00 0.01 0.02 0.02 0.00 0.00 0.00 0.00
0.11 0.06 0.07 0.03 0.05 0.01 0.00 0.00 0.00 0.00 0.00 0.00 0.00 0.00 0.00 0.00 0.00 0.00 0.03 0.14 0.05 0.23 0.07 0.00 0.05 0.09 0.06 0.09 0.04 0.07 0.02 0.05 0.03 0.01 0.02 0.01 0.00 0.00 0.01 0.00 0.00 0.00 0.00
0.07 0.05 0.02 0.06 0.06 0.03 0.03 0.00 0.00 0.00 0.00 0.00 0.00 0.00 0.02 0.02 0.00 0.02 0.03 0.05 0.01 0.23 0.11 0.02 0.02 0.05 0.07 0.05 0.05 0.02 0.03 0.06 0.06 0.03 0.00 0.01 0.00 0.00 0.00 0.00 0.00 0.00 0.00
0.04 0.01 0.03 0.10 0.07 0.05 0.03 0.00 0.02 0.01 0.01 0.00 0.00 0.01 0.05 0.11 0.06 0.10 0.13 0.07 0.00 0.14 0.07 0.02 0.00 0.00 0.01 0.00 0.01 0.02 0.02 0.01 0.01 0.00 0.00 0.00 0.01 0.00 0.00 0.00 0.00 0.00 0.00
0.06 0.08 0.04 0.04 0.06 0.04 0.04 0.03 0.01 0.09 0.16 0.04 0.03 0.12 0.17 0.05 0.07 0.11 0.08 0.00 0.00 0.00 0.00 0.00 0.00 0.03 0.02 0.00 0.00 0.00 0.00 0.00 0.00 0.00 0.00 0.00 0.00 0.00 0.00 0.00 0.00 0.00 0.00
0.14 0.18 0.22 0.09 0.06 0.08 0.12 0.10 0.03 0.04 0.12 0.03 0.09 0.10 0.08 0.08 0.15 0.13 0.13 0.05 0.00 0.00 0.00 0.00 0.00 0.01 0.00 0.01 0.00 0.00 0.00 0.00 0.00 0.00 0.00 0.00 0.00 0.00 0.00 0.00 0.00 0.00 0.00
0.13 0.13 0.23 0.18 0.23 0.14 0.11 0.08 0.06 0.05 0.07 0.08 0.08 0.04 0.03 0.04 0.13 0.14 0.07 0.02 0.00 0.00 0.00 0.00 0.02 0.01 0.00 0.00 0.00 0.00 0.00 0.00 0.00 0.00 0.00 0.00 0.00 0.00 0.00 0.00 0.00 0.00 0.00
0.08 0.10 0.29 0.36 0.27 0.27 0.25 0.18 0.16 0.15 0.14 0.10 0.14 0.11 0.02 0.01 0.04 0.06 0.06 0.05 0.02 0.00 0.00 0.00 0.00 0.00 0.00 0.00 0.00 0.00 0.00 0.00 0.00 0.00 0.00 0.00 0.00 0.00 0.00 0.00 0.00 0.00 0.00
0.03 0.04 0.06 0.07 0.13 0.31 0.39 0.31 0.37 0.34 0.25 0.22 0.16 0.16 0.19 0.28 0.24 0.09 0.13 0.14 0.06 0.03 0.01 0.02 0.01 0.00 0.00 0.00 0.00 0.00 0.00 0.00 0.00 0.00 0.00 0.00 0.00 0.00 0.00 0.00 0.00 0.00 0.00
0.00 0.00 0.00 0.00 0.02 0.02 0.17 0.40 0.41 0.45 0.45 0.32 0.28 0.25 0.24 0.27 0.26 0.18 0.17 0.07 0.07 0.10 0.05 0.07 0.05 0.02 0.01 0.00 0.00 0.00 0.00 0.00 0.00 0.00 0.00 0.00 0.00 0.00 0.00 0.00 0.00 0.00 0.00
0.00 0.00 0.00 0.00 0.00 0.00 0.00 0.07 0.13 0.16 0.10 0.12 0.22 0.23 0.19 0.16 0.23 0.19 0.12 0.11 0.13 0.12 0.09 0.08 0.05 0.02 0.01 0.01 0.01 0.00 0.00 0.00 0.00 0.00 0.00 0.00 0.00 0.00 0.00 0.00 0.00 0.00 0.00
0.00 0.00 0.00 0.00 0.00 0.00 0.00 0.00 0.06 0.07 0.04 0.01 0.04 0.08 0.07 0.08 0.13 0.11 0.12 0.09 0.07 0.08 0.06 0.05 0.03 0.02 0.01 0.00 0.00 0.00 0.00 0.00 0.00 0.00 0.00 0.00 0.00 0.00 0.00 0.00 0.00 0.00 0.00
0.00 0.00 0.00 0.00 0.00 0.00 0.00 0.00 0.01 0.02 0.03 0.01 0.00 0.00 0.01 0.02 0.03 0.01 0.02 0.01 0.01 0.00 0.00 0.00 0.00 0.00 0.00 0.00 0.00 0.00 0.00 0.00 0.00 0.00 0.00 0.00 0.00 0.00 0.00 0.00 0.00 0.00 0.00
0.00 0.00 0.00 0.00 0.00 0.00 0.00 0.00 0.00 0.00 0.01 0.03 0.00 0.00 0.00 0.00 0.00 0.00 0.00 0.00 0.00 0.00 0.00 0.00 0.00 0.00 0.00 0.00 0.00 0.00 0.00 0.00 0.00 0.00 0.00 0.00 0.00 0.00 0.00 0.00 0.00 0.00 0.00
0.00 0.00 0.00 0.00 0.00 0.00 0.00 0.00 0.00 0.00 0.00 0.01 0.00 0.00 0.00 0.00 0.00 0.00 0.01 0.02 0.02 0.01 0.00 0.00 0.00 0.00 0.00 0.00 0.00 0.00 0.00 0.00 0.00 0.00 0.00 0.00 0.00 0.00 0.00 0.00 0.00 0.00 0.00
0.00 0.00 0.00 0.00 0.00 0.00 0.00 0.00 0.00 0.00 0.00 0.00 0.00 0.00 0.00 0.00 0.00 0.00 0.02 0.04 0.02 0.01 0.01 0.00 0.00 0.00 0.00 0.00 0.00 0.00 0.00 0.00 0.00 0.00 0.00 0.00 0.00 0.00 0.00 0.00 0.00 0.00 0.00
0.00 0.00 0.00 0.00 0.00 0.00 0.00 0.00 0.00 0.00 0.00 0.00 0.00 0.00 0.00 0.00 0.00 0.00 0.00 0.00 0.00 0.01 0.02 0.01 0.00 0.00 0.00 0.00 0.00 0.00 0.00 0.00 0.00 0.00 0.00 0.00 0.00 0.00 0.00 0.00 0.00 0.00 0.00
0.00 0.00 0.00 0.00 0.00 0.00 0.00 0.00 0.00 0.00 0.00 0.00 0.00 0.01 0.00 0.00 0.00 0.00 0.00 0.00 0.00 0.00 0.00 0.00 0.00 0.01 0.01 0.00 0.00 0.00 0.00 0.00 0.00 0.00 0.00 0.00 0.00 0.00 0.00 0.00 0.00 0.00 0.00
0.00 0.00 0.00 0.00 0.00 0.00 0.00 0.00 0.00 0.00 0.00 0.00 0.00 0.02 0.00 0.00 0.00 0.00 0.00 0.00 0.00 0.00 0.01 0.04 0.05 0.03 0.03 0.01 0.00 0.00 0.00 0.00 0.00 0.00 0.00 0.00 0.00 0.00 0.00 0.00 0.00 0.00 0.00
0.00 0.00 0.00 0.00 0.00 0.00 0.00 0.00 0.00 0.00 0.00 0.00 0.00 0.02 0.01 0.00 0.00 0.00 0.00 0.00 0.00 0.00 0.02 0.04 0.04 0.03 0.02 0.01 0.00 0.00 0.00 0.00 0.00 0.00 0.00 0.00 0.00 0.00 0.00 0.00 0.00 0.00 0.00
0.00 0.00 0.00 0.00 0.00 0.00 0.00 0.00 0.00 0.00 0.00 0.00 0.02 0.01 0.00 0.00 0.00 0.00 0.00 0.00 0.00 0.01 0.00 0.01 0.01 0.04 0.02 0.00 0.00 0.00 0.00 0.00 0.00 0.00 0.00 0.00 0.00 0.00 0.00 0.00 0.00 0.00 0.00
0.00 0.00 0.00 0.00 0.00 0.00 0.00 0.00 0.00 0.00 0.00 0.01 0.05 0.03 0.01 0.00 0.00 0.00 0.00 0.00 0.00 0.00 0.00 0.00 0.00 0.01 0.00 0.00 0.00 0.00 0.00 0.00 0.00 0.00 0.00 0.00 0.00 0.00 0.00 0.00 0.00 0.00 0.00
0.00 0.00 0.00 0.00 0.00 0.00 0.00 0.00 0.00 0.00 0.00 0.00 0.01 0.01 0.00 0.00 0.00 0.00 0.00 0.00 0.00 0.00 0.00 0.00 0.00 0.00 0.00 0.00 0.00 0.00 0.00 0.00 0.00 0.00 0.00 0.00 0.00 0.00 0.00 0.00 0.00 0.00 0.00
0.00 0.00 0.00 0.00 0.00 0.00 0.00 0.00 0.00 0.00 0.00 0.00 0.02 0.02 0.02 0.00 0.00 0.00 0.00 0.00 0.00 0.00 0.00 0.00 0.00 0.00 0.00 0.00 0.00 0.00 0.00 0.00 0.00 0.00 0.00 0.00 0.00 0.00 0.00 0.00 0.00 0.00 0.00
0.00 0.00 0.00 0.00 0.00 0.00 0.00 0.00 0.00 0.00 0.00 0.00 0.00 0.01 0.04 0.03 0.00 0.00 0.00 0.00 0.00 0.00 0.00 0.00 0.00 0.00 0.00 0.00 0.00 0.00 0.00 0.00 0.01 0.01 0.00 0.00 0.00 0.00 0.00 0.00 0.00 0.00 0.00
MSLP
1011.22 1011.54 1011.84 1012.15 1011.84 1011.77 1011.86 1011.79 1011.82 1012.03 1012.24 1012.46 1012.56 1012.84 1013.10 1013.36 1013.48 1013.94 1014.07 1014.32 1014.39 1014.49 1014.60 1014.58 1014.62 1014.65 1014.81 1014.92 1015.24 1015.36 1015.52 1015.75 1015.95 1015.25 1014.96 1014.51 1014.39 1014.16 1013.89 1013.85 1013.89 1014.11 1014.02
1011.53 1011.45 1011.75 1011.65 1011.19 1011.12 1011.23 1011.26 1011.40 1011.67 1011.84 1012.01 1012.08 1012.31 1012.52 1012.68 1012.98 1013.45 1013.68 1013.76 1014.02 1014.20 1014.37 1014.40 1014.34 1014.45 1014.43 1014.57 1014.69 1014.92 1014.97 1015.08 1015.32 1015.30 1014.91 1014.54 1014.31 1013.96 1014.04 1014.00 1013.74 1013.49 1013.29
1011.42 1011.39 1010.88 1010.49 1010.37 1010.23 1010.24 1010.45 1010.88 1011.11 1011.29 1011.53 1011.77 1011.92 1012.06 1012.21 1012.59 1013.04 1013.32 1013.50 1013.52 1013.54 1013.88 1013.93 1013.92 1014.11 1014.07 1014.20 1014.25 1014.42 1014.63 1014.71 1014.89 1014.95 1014.90 1014.56 1014.19 1014.00 1013.89 1013.69 1013.52 1013.31 1013.04
1010.54 1010.70 1010.34 1009.75 1009.51 1009.54 1009.56 1009.76 1010.24 1010.55 1010.68 1010.99 1011.24 1011.44 1011.57 1011.84 1012.15 1012.63 1012.93 1013.11 1013.14 1013.24 1013.40 1013.27 1013.32 1013.62 1013.73 1013.86 1013.83 1013.98 1014.19 1014.31 1014.43 1014.51 1014.53 1014.50 1014.36 1013.99 1014.11 1014.07 1013.72 1013.31 1012.92
1010.15 1009.97 1009.51 1009.19 1008.86 1009.05 1009.01 1009.06 1009.43 1009.79 1010.04 1010.26 1010.62 1010.80 1011.23 1011.72 1012.04 1012.20 1012.46 1012.52 1012.74 1013.04 1012.91 1012.82 1012.78 1012.92 1013.01 1013.24 1013.46 1013.55 1013.91 1014.11 1014.36 1014.54 1014.58 1014.37 1014.11 1014.17 1014.21 1013.84 1013.77 1013.35 1012.90
1009.40 1009.44 1008.97 1008.77 1008.50 1008.47 1008.34 1008.56 1008.70 1009.00 1009.42 1009.68 1010.06 1010.31 1010.79 1011.07 1011.27 1011.48 1011.69 1011.92 1012.14 1012.41 1012.59 1012.45 1012.52 1012.61 1012.80 1012.98 1013.07 1013.11 1013.22 1013.51 1013.80 1014.10 1014.16 1014.20 1014.13 1014.03 1013.79 1013.65 1013.47 1013.48 1013.28
1008.91 1009.17 1009.38 1009.11 1008.70 1008.49 1008.40 1008.66 1008.40 1008.43 1008.65 1009.17 1009.47 1009.86 1010.00 1010.47 1010.61 1010.77 1010.97 1011.31 1011.61 1011.80 1011.95 1012.05 1012.14 1012.19 1012.40 1012.78 1012.88 1013.01 1013.20 1013.34 1013.40 1013.60 1013.90 1013.95 1013.87 1013.80 1013.86 1013.68 1013.44 1013.29 1013.00
1009.44 1009.62 1009.69 1009.30 1009.30 1008.80 1008.79 1008.57 1008.34 1008.24 1008.13 1008.54 1008.77 1009.13 1009.56 1009.44 1009.68 1009.88 1010.30 1010.64 1010.80 1010.91 1011.13 1011.38 1011.78 1011.97 1012.21 1012.55 1012.90 1013.17 1013.37 1013.37 1013.33 1013.34 1013.50 1013.50 1013.50 1013.61 1013.73 1013.62 1013.49 1013.22 1012.76
1009.85 1009.77 1009.85 1009.48 1008.97 1008.36 1008.25 1009.37 1009.33 1008.76 1008.33 1008.25 1008.15 1008.52 1008.77 1008.81 1008.93 1009.31 1009.82 1010.24 1010.36 1010.63 1010.68 1010.86 1011.18 1011.64 1011.97 1012.33 1012.81 1013.30 1013.58 1013.55 1013.24 1013.13 1013.26 1013.29 1013.22 1013.05 1013.05 1013.28 1013.26 1013.25 1012.64
1009.54 1009.56 1009.65 1009.44 1009.08 1008.63 1008.20 1009.31 1009.91 1009.46 1008.51 1008.79 1009.36 1009.77 1009.23 1008.88 1009.05 1009.01 1009.42 1009.64 1010.00 1010.42 1010.65 1010.86 1011.08 1011.25 1011.85 1012.23 1012.64 1013.13 1013.51 1013.52 1013.47 1013.35 1013.30 1013.13 1012.94 1012.81 1012.62 1012.77 1012.70 1012.72 1012.50
1009.37 1009.30 1009.28 1009.37 1009.48 1009.44 1009.41 1009.37 1008.37 1008.91 1009.72 1010.25 1010.50 1010.42 1010.18 1010.05 1009.37 1009.29 1009.36 1009.15 1009.12 1009.66 1010.35 1010.95 1011.27 1011.43 1011.83 1012.25 1012.57 1012.96 1013.12 1013.27 1013.36 1013.39 1013.37 1013.26 1013.03 1012.82 1012.59 1012.32 1012.13 1012.07 1011.79
1009.18 1009.02 1009.03 1009.15 1009.25 1009.42 1009.35 1009.22 1009.15 1008.68 1007.91 1007.31 1007.80 1010.81 1009.44 1009.30 1008.82 1008.72 1008.94 1009.29 1008.79 1009.14 1009.80 1010.45 1011.08 1011.64 1011.96 1012.14 1012.47 1012.62 1012.80 1013.04 1013.20 1013.28 1013.21 1013.08 1012.86 1012.55 1012.26 1011.97 1011.48 1011.13 1010.80
1009.25 1008.99 1008.77 1008.85 1008.92 1009.07 1009.28 1009.36 1009.27 1009.15 1008.36 1007.06 1006.90 1007.24 1007.77 1006.69 1007.27 1007.30 1007.30 1008.22 1008.36 1008.78 1009.03 1009.54 1010.18 1011.03 1011.76 1011.99 1012.06 1012.24 1012.51 1012.80 1013.11 1013.19 1013.02 1012.75 1012.44 1012.06 1011.79 1011.43 1010.81 1010.41 1010.27
1009.24 1009.06 1008.78 1008.55 1008.52 1008.60 1008.49 1008.36 1008.50 1008.21 1007.99 1007.89 1007.85 1006.92 1005.63 1005.28 1005.18 1006.05 1007.55 1006.96 1007.39 1008.25 1008.63 1009.42 1010.06 1010.79 1011.47 1011.52 1012.00 1011.92 1012.10 1012.54 1012.74 1013.00 1012.86 1012.37 1012.22 1012.09 1011.93 1011.76 1011.27 1010.85 1010.28
1008.81 1008.62 1008.47 1008.29 1007.97 1007.93 1007.94 1007.62 1007.53 1007.49 1007.20 1007.23 1006.77 1006.13 1005.96 1005.50 1006.43 1005.64 1006.37 1008.24 1008.02 1008.21 1008.40 1009.39 1010.43 1010.87 1011.47 1011.64 1011.78 1011.88 1011.89 1012.12 1012.60 1012.77 1012.82 1012.42 1012.18 1012.37 1012.27 1011.81 1011.53 1011.40 1010.72
1008.38 1008.13 1007.90 1007.75 1007.55 1007.35 1007.38 1007.26 1006.62 1006.67 1006.67 1006.44 1006.51 1006.60 1006.00 1006.34 1006.10 1006.29 1007.12 1006.92 1007.08 1008.17 1008.77 1009.22 1010.03 1010.41 1011.05 1011.23 1011.44 1011.72 1011.86 1012.13 1012.28 1012.34 1012.89 1012.59 1012.15 1012.54 1012.55 1012.03 1011.90 1011.99 1011.41
1007.71 1007.39 1007.24 1007.18 1007.10 1006.90 1006.72 1006.95 1006.79 1006.18 1006.11 1006.06 1005.74 1006.33 1006.30 1006.36 1006.25 1006.81 1007.15 1007.71 1008.02 1008.24 1008.31 1008.72 1009.44 1010.16 1010.44 1010.65 1010.96 1011.51 1011.80 1011.78 1011.78 1012.15 1012.62 1012.56 1012.35 1012.39 1012.61 1012.31 1012.26 1012.36 1012.04
1006.89 1006.62 1006.63 1006.50 1006.41 1006.24 1006.07 1005.99 1006.00 1005.78 1005.60 1005.53 1005.13 1005.56 1005.70 1005.63 1006.16 1006.22 1006.98 1007.59 1008.28 1008.29 1008.09 1008.44 1009.23 1009.69 1009.89 1010.20 1010.72 1011.19 1011.53 1011.51 1011.58 1011.80 1012.26 1012.52 1012.25 1012.48 1012.60 1012.71 1012.69 1012.72 1012.54
1006.13 1005.92 1005.75 1005.71 1005.68 1005.53 1005.33 1005.13 1005.02 1004.74 1004.86 1004.89 1004.92 1005.07 1005.27 1005.66 1005.67 1006.29 1006.66 1006.59 1007.15 1007.62 1007.70 1008.08 1008.32 1008.91 1009.43 1009.70 1010.19 1010.61 1010.92 1011.23 1011.40 1011.51 1011.73 1012.26 1012.13 1012.19 1012.51 1012.58 1012.75 1012.69 1012.60
1005.21 1004.96 1004.93 1004.89 1004.85 1004.85 1004.72 1004.55 1004.33 1004.01 1003.74 1004.03 1004.25 1004.16 1004.59 1005.39 1005.68 1005.96 1006.16 1006.15 1006.31 1006.55 1006.91 1007.46 1007.90 1008.25 1008.74 1009.27 1009.54 1010.00 1010.50 1010.88 1011.17 1011.28 1011.38 1011.47 1011.79 1011.84 1012.17 1012.34 1012.33 1012.54 1012.72
1004.38 1004.11 1004.04 1004.00 1003.97 1004.00 1003.99 1003.86 1003.47 1003.34 1003.04 1002.84 1002.84 1003.08 1003.38 1004.28 1004.39 1004.54 1004.75 1005.10 1005.39 1005.64 1006.06 1006.67 1007.26 1007.65 1007.81 1008.22 1008.86 1009.49 1009.92 1010.21 1010.36 1010.54 1010.94 1011.15 1011.27 1011.40 1011.35 1011.62 1011.82 1012.00 1012.26
1003.49 1003.28 1003.18 1003.12 1003.01 1003.08 1003.08 1002.99 1002.84 1002.65 1002.38 1002.26 1001.92 1002.18 1002.69 1003.34 1003.69 1003.77 1003.89 1004.08 1004.32 1004.57 1004.95 1005.50 1006.15 1006.68 1007.35 1007.50 1007.97 1008.69 1009.17 1009.60 1009.53 1009.80 1010.23 1010.56 1010.97 1011.05 1010.91 1011.07 1011.16 1011.41 1011.69
1002.69 1002.49 1002.30 1002.15 1002.11 1002.03 1002.04 1001.99 1001.99 1001.85 1001.65 1001.49 1001.45 1001.75 1002.37 1002.50 1002.76 1003.16 1003.27 1003.35 1003.61 1004.06 1004.60 1004.89 1005.55 1006.01 1006.21 1006.61 1006.97 1007.37 1008.07 1008.37 1008.49 1008.83 1009.69 1010.16 1010.63 1010.68 1010.43 1010.66 1010.84 1011.10 1011.52
1001.99 1001.66 1001.45 1001.26 1001.21 1001.22 1001.17 1001.06 1000.95 1000.80 1000.69 1000.65 1000.79 1000.97 1001.40 1001.88 1002.21 1002.46 1002.69 1003.02 1003.26 1003.57 1004.06 1004.45 1004.81 1005.19 1005.67 1006.02 1006.35 1006.63 1007.16 1007.53 1007.93 1008.27 1009.09 1009.67 1009.99 1010.15 1010.38 1010.52 1010.70 1011.16 1011.35
1001.64 1001.14 1000.79 1000.57 1000.43 1000.40 1000.36 1000.28 1000.18 1000.07 1000.02 1000.04 1000.01 1000.26 1000.60 1000.96 1001.38 1001.72 1002.02 1002.52 1002.89 1003.24 1003.59 1003.94 1004.38 1004.80 1005.09 1005.58 1006.16 1006.52 1007.13 1007.41 1007.72 1008.30 1008.86 1009.49 1009.61 1009.73 1010.06 1010.43 1010.87 1011.20 1011.34
1000.94 1000.50 1000.13 999.90 999.77 999.59 999.45 999.34 999.26 999.16 999.22 999.36 999.33 999.54 999.94 1000.36 1000.65 1001.04 1001.50 1002.01 1002.45 1002.84 1003.36 1003.74 1004.13 1004.61 1005.06 1005.57 1006.10 1006.79 1007.49 1007.44 1007.97 1008.46 1008.77 1009.09 1009.59 1009.88 1010.11 1010.44 1010.86 1011.39 1011.68
Thickness
5761 5761 5759 5757 5763 5767 5768 5771 5772 5772 5771 5772 5773 5772 5772 5770 5771 5767 5768 5767 5766 5764 5765 5764 5764 5766 5763 5762 5759 5757 5754 5751 5745 5754 5757 5760 5760 5763 5767 5767 5767 5764 5764
5757 5759 5759 5761 5765 5768 5770 5772 5772 5771 5772 5772 5774 5772 5771 5773 5771 5765 5765 5767 5764 5762 5761 5762 5764 5764 5764 5763 5762 5758 5756 5755 5752 5749 5755 5759 5762 5765 5763 5763 5765 5766 5768
5758 5761 5766 5767 5768 5772 5775 5774 5771 5771 5771 5771 5771 5770 5769 5772 5769 5766 5764 5763 5763 5764 5761 5761 5763 5762 5761 5761 5760 5759 5756 5756 5754 5753 5753 5756 5758 5761 5761 5763 5763 5765 5765
5767 5764 5768 5774 5776 5777 5777 5776 5772 5770 5771 5770 5768 5768 5768 5768 5767 5763 5761 5760 5761 5762 5761 5763 5764 5762 5761 5759 5759 5759 5757 5757 5755 5754 5754 5754 5755 5759 5757 5754 5755 5761 5762
5768 5769 5774 5778 5778 5776 5776 5778 5776 5772 5771 5772 5769 5770 5766 5764 5762 5761 5759 5760 5758 5757 5760 5762 5764 5765 5764 5762 5760 5759 5756 5754 5752 5750 5748 5751 5753 5752 5750 5753 5752 5756 5757
5771 5767 5774 5777 5777 5776 5776 5777 5778 5774 5771 5769 5767 5766 5764 5763 5763 5762 5762 5760 5759 5756 5755 5759 5761 5762 5760 5760 5760 5761 5761 5756 5753 5749 5749 5748 5749 5749 5750 5750 5750 5748 5743
5771 5768 5766 5766 5770 5769 5770 5770 5774 5774 5773 5768 5765 5764 5764 5762 5761 5761 5761 5759 5756 5756 5755 5757 5758 5760 5760 5758 5757 5757 5756 5755 5755 5751 5747 5746 5746 5747 5745 5744 5745 5744 5743
5759 5758 5755 5755 5756 5762 5760 5760 5765 5769 5769 5767 5764 5761 5759 5762 5761 5759 5758 5757 5757 5758 5758 5757 5755 5755 5756 5755 5753 5751 5750 5750 5749 5749 5747 5746 5745 5743 5741 5739 5737 5738 5739
5747 5747 5743 5745 5749 5757 5758 5744 5744 5750 5757 5760 5763 5758 5757 5757 5757 5754 5753 5753 5754 5752 5755 5756 5756 5754 5753 5752 5748 5744 5741 5742 5743 5744 5743 5743 5743 5742 5741 5737 5733 5730 5731
5745 5742 5737 5736 5739 5745 5749 5737 5731 5737 5746 5743 5736 5727 5734 5741 5742 5747 5748 5750 5745 5746 5749 5749 5751 5754 5749 5747 5743 5739 5735 5735 5735 5736 5737 5738 5739 5738 5738 5736 5733 5729 5726
5737 5738 5735 5729 5724 5723 5724 5719 5725 5703 5725 5714 5702 5709 5717 5724 5737 5738 5735 5743 5747 5747 5744 5741 5743 5745 5742 5740 5739 5735 5733 5731 5730 5728 5728 5729 5731 5732 5732 5732 5731 5728 5726
5728 5729 5727 5724 5719 5714 5716 5713 5711 5707 5705 5727 5704 5686 5719 5724 5733 5736 5732 5732 5743 5746 5742 5740 5738 5737 5736 5735 5734 5733 5730 5726 5724 5723 5722 5723 5724 5726 5727 5728 5728 5729 5729
5713 5716 5718 5717 5713 5710 5706 5700 5701 5704 5709 5717 5717 5726 5726 5738 5736 5741 5742 5740 5745 5744 5745 5744 5741 5736 5731 5730 5732 5731 5727 5722 5718 5716 5715 5718 5720 5724 5724 5725 5727 5727 5727
5698 5701 5704 5706 5704 5703 5702 5703 5699 5701 5708 5712 5711 5729 5746 5750 5753 5749 5736 5748 5749 5743 5742 5738 5737 5732 5727 5729 5725 5726 5723 5717 5714 5709 5709 5713 5714 5714 5714 5714 5716 5718 5720
5687 5689 5691 5693 5697 5697 5695 5696 5699 5697 5708 5713 5718 5729 5735 5743 5736 5743 5734 5725 5734 5735 5737 5731 5724 5723 5717 5718 5719 5719 5717 5715 5709 5705 5702 5706 5706 5704 5704 5708 5708 5709 5712
5676 5678 5679 5681 5685 5690 5691 5690 5694 5695 5700 5707 5711 5717 5727 5726 5728 5728 5722 5724 5727 5722 5724 5723 5716 5715 5712 5713 5713 5711 5710 5708 5704 5702 5695 5696 5700 5696 5696 5699 5698 5697 5701
5670 5673 5671 5671 5674 5679 5684 5685 5686 5693 5696 5705 5711 5711 5715 5717 5718 5715 5714 5710 5708 5709 5715 5712 5706 5704 5705 5707 5707 5704 5702 5701 5701 5696 5690 5690 5691 5690 5688 5689 5687 5686 5687
5667 5667 5666 5666 5666 5669 5675 5680 5683 5688 5695 5702 5708 5707 5709 5712 5710 5709 5703 5701 5699 5702 5707 5702 5697 5697 5699 5699 5698 5697 5695 5694 5693 5691 5686 5683 5686 5683 5681 5677 5676 5674 5674
5661 5660 5660 5659 5659 5661 5667 5672 5679 5687 5691 5695 5702 5703 5704 5702 5703 5699 5699 5706 5701 5698 5700 5696 5696 5696 5692 5691 5691 5691 5690 5688 5686 5684 5682 5677 5678 5677 5672 5670 5667 5663 5666
5656 5656 5654 5654 5654 5654 5658 5664 5670 5680 5689 5691 5694 5703 5698 5696 5699 5699 5696 5699 5700 5699 5699 5694 5694 5694 5690 5687 5687 5686 5684 5680 5678 5677 5676 5675 5671 5671 5666 5663 5663 5659 5656
5650 5650 5649 5649 5650 5650 5651 5656 5664 5672 5682 5690 5695 5698 5695 5697 5699 5700 5700 5698 5698 5698 5696 5693 5691 5689 5690 5689 5686 5682 5679 5676 5675 5675 5670 5668 5667 5664 5664 5661 5658 5655 5652
5644 5644 5643 5644 5647 5648 5649 5652 5657 5666 5675 5683 5691 5692 5687 5692 5692 5693 5695 5696 5697 5697 5697 5695 5692 5690 5685 5685 5683 5678 5675 5672 5674 5673 5669 5664 5658 5656 5658 5656 5654 5650 5647
5638 5639 5640 5641 5644 5647 5649 5651 5655 5661 5670 5677 5683 5683 5681 5687 5690 5689 5690 5692 5693 5693 5691 5692 5688 5687 5687 5685 5682 5678 5674 5673 5673 5671 5662 5658 5652 5651 5654 5651 5649 5645 5639
5633 5635 5638 5639 5641 5644 5647 5650 5654 5660 5667 5673 5678 5682 5683 5684 5684 5685 5685 5686 5687 5688 5688 5688 5688 5686 5684 5682 5678 5676 5671 5669 5666 5664 5657 5651 5648 5647 5645 5644 5643 5638 5635
5626 5631 5634 5637 5639 5641 5644 5647 5652 5658 5663 5668 5674 5678 5680 5682 5683 5683 5683 5682 5682 5684 5685 5686 5684 5682 5681 5677 5671 5667 5664 5661 5658 5654 5649 5644 5644 5643 5638 5634 5630 5627 5626
5623 5627 5631 5634 5636 5640 5644 5648 5652 5657 5661 5664 5670 5674 5675 5677 5679 5680 5681 5680 5681 5681 5678 5676 5675 5673 5670 5666 5661 5656 5651 5651 5647 5642 5640 5639 5634 5632 5630 5626 5621 5614 5611